DMSP 5D-2 F11 DEB

基本信息
目录编号:
28317
目录名称:
DMSP 5D-2 F11 DEB
国际标识:
1991-082AE
轨道中心:
EARTH
物体状态:
在轨
发射日期:
1991-11-28 UTC
轨道信息
数据来源: 国际轨道数据
星历时间: 2026-09-13T01:54:01+0800
半长轴: 7201.684km
偏心率: 0.0118652
轨道倾角: 98.859°
近地点辐角: 39.627°
升交点赤经: 275.222°
平近点角: 12.680°
近地点: 738.097km
远地点: 908.997km
周期: 101.370分钟
每日圈数: 14.205343
详细信息
发射场:
AFWTR
轨道高度:
LEO
数据来源:
AOE Integration Group
参考系:
TEME
时间系统:
UTC
历元类型:
SGP4
2D轨道图
3D轨道图
轨道高度分析图
轨道倾角分析图
轨道综合分析图
查看轨道综合分析图